Temperature
24 22 22 23 23 24 24 23 23 23 24 23 22 22 21 21 21 21 20 20 20 21 21 21 20 20 20 20 20 19 19 19 19 19 19 18 18 18 18 18 18 18 18 18
23 23 24 24 24 24 24 23 23 23 23 23 22 22 21 21 21 21 21 21 21 21 21 21 20 20 20 20 20 20 19 19 19 19 19 19 18 18 18 18 18 18 18 18
24 24 24 25 24 24 24 23 23 23 23 22 22 22 21 21 21 22 21 22 21 21 21 21 21 21 20 20 20 20 20 19 19 19 19 19 18 18 18 18 18 18 18 18
24 24 24 25 24 24 23 24 24 23 22 21 22 21 21 20 20 21 21 21 22 22 22 22 22 21 21 21 20 20 20 19 19 19 19 19 19 19 18 18 18 18 18 18
23 24 24 24 25 24 24 24 23 23 21 21 21 21 21 20 20 21 21 22 22 22 22 22 22 22 21 21 21 20 20 20 19 19 19 19 19 19 18 18 18 18 18 18
24 24 25 25 25 25 24 23 21 19 19 21 21 21 21 20 21 21 22 22 22 22 23 22 22 22 21 21 21 20 20 20 20 19 19 19 19 19 18 18 18 18 18 18
24 24 24 25 24 24 23 21 21 21 20 20 20 21 20 21 21 22 22 23 23 23 23 22 22 22 22 21 21 21 20 20 20 20 19 19 19 19 19 19 18 18 18 18
22 22 24 24 24 23 22 22 21 21 21 20 20 20 21 22 22 23 23 23 23 23 23 23 23 23 22 22 21 21 21 20 20 20 20 19 19 19 19 19 18 18 18 18
21 22 24 24 24 23 22 21 21 19 20 20 20 20 21 22 22 22 22 23 23 23 23 23 23 23 23 22 22 21 21 21 20 20 20 19 19 19 19 19 18 18 18 18
21 22 23 24 24 23 22 19 18 19 20 21 22 22 21 22 22 21 21 22 22 23 23 23 23 23 23 22 22 21 21 21 20 20 20 19 19 19 18 18 18 18 18 18
21 21 22 23 23 23 21 20 18 17 19 20 21 21 22 21 21 20 21 22 23 23 24 23 23 23 23 22 22 21 21 21 20 20 20 19 19 19 18 18 18 18 18 18
19 18 20 22 22 22 22 20 18 20 19 18 19 21 22 20 20 21 21 22 23 24 24 23 23 23 22 22 22 21 21 21 21 20 20 19 19 19 18 18 18 18 17 17
19 18 20 21 21 22 22 20 19 18 16 17 20 22 21 20 20 21 21 22 23 23 23 23 23 23 22 22 22 21 21 21 21 20 20 19 19 19 18 18 18 18 17 17
19 17 19 20 20 21 21 21 19 19 18 18 19 21 21 20 20 20 21 22 22 23 23 23 23 23 22 22 22 22 21 21 20 20 20 19 19 19 18 18 18 17 17 17
18 18 19 20 21 21 21 21 20 20 19 20 20 20 21 20 20 21 21 22 22 22 22 22 22 23 22 22 22 21 21 20 20 20 19 19 19 18 18 18 17 17 17 17
16 18 19 20 20 21 21 21 21 21 20 20 21 21 20 20 20 20 21 21 21 21 22 22 22 22 22 22 21 21 21 20 20 20 19 19 18 18 18 17 17 17 17 16
14 16 17 18 20 21 20 20 20 20 20 20 20 20 19 19 19 20 20 20 21 21 21 21 22 22 22 22 21 21 20 20 20 19 19 18 18 18 17 17 17 16 16 16
14 14 14 16 20 20 20 20 20 20 20 19 20 19 19 19 20 21 21 21 21 21 21 21 21 21 21 21 20 20 20 20 20 19 18 18 18 17 17 17 16 16 16 16
13 14 14 15 18 19 20 20 19 20 20 19 19 19 19 19 19 20 21 21 21 21 21 21 21 21 21 20 20 20 19 19 19 18 18 18 18 17 17 16 16 16 16 16
13 13 14 15 18 19 19 20 19 20 20 19 19 18 18 19 18 19 21 21 21 21 21 21 21 21 20 20 20 19 19 19 18 18 18 17 17 17 17 16 16 16 15 15
15 14 14 15 17 17 18 18 19 20 19 19 19 18 18 18 19 20 21 20 20 20 20 20 20 20 20 20 19 19 19 18 18 17 17 17 17 16 16 16 16 15 15 15
14 14 14 14 17 17 17 17 18 17 18 18 18 19 19 19 20 20 20 20 20 20 20 20 20 20 19 19 19 18 18 18 17 17 16 16 16 16 15 15 15 15 14 14
13 13 13 14 15 15 16 16 17 18 18 18 19 19 19 19 19 19 20 20 20 20 19 19 19 19 19 19 18 18 18 17 16 16 16 16 16 15 15 15 15 14 14 14
13 12 12 13 14 15 16 17 17 18 18 19 19 19 19 18 19 19 19 19 19 19 19 19 19 18 18 18 18 18 17 17 16 16 16 15 15 15 14 14 14 14 14 14
13 12 13 13 14 15 16 17 17 18 18 18 19 19 19 19 19 19 19 19 18 18 18 18 18 18 18 17 17 17 17 16 16 15 15 15 14 14 14 14 14 14 14 13
12 12 13 14 14 14 15 16 17 17 17 18 18 18 19 19 18 18 18 18 18 18 17 18 18 17 17 17 16 16 16 16 16 15 15 14 14 14 14 14 13 13 13 13
Wind_Speed
4 6 6 9 8 7 8 7 4 4 3 4 4 4 5 8 9 9 9 8 8 8 6 5 5 5 5 5 5 4 4 3 3 3 2 2 1 1 2 2 2 2 2 3
5 2 7 7 6 7 7 6 3 0 2 3 2 3 4 8 11 11 11 11 10 8 5 5 5 6 6 6 6 5 5 4 4 3 2 2 2 1 1 1 2 1 1 2
6 5 6 7 7 7 5 7 6 4 2 3 3 3 3 4 6 7 9 9 9 11 10 8 7 7 7 7 7 6 5 5 4 4 3 3 3 2 2 2 1 2 1 2
3 3 6 7 6 7 5 6 7 6 5 0 2 2 6 4 5 9 10 10 10 10 9 8 9 8 8 7 6 6 5 5 5 5 5 4 3 2 1 1 0 1 2 2
4 5 7 6 7 8 5 5 5 5 5 2 2 1 7 2 6 11 12 12 12 11 11 10 10 9 8 7 6 6 5 5 4 5 5 5 3 2 1 1 1 1 2 2
3 2 4 6 3 6 7 8 8 6 5 0 2 3 6 5 9 8 10 11 12 11 10 9 8 6 6 6 6 6 6 5 5 5 5 5 5 3 2 2 1 0 1 1
1 2 2 4 5 3 7 7 4 3 3 5 2 3 9 8 8 10 10 11 11 11 10 9 9 8 8 8 8 7 7 6 6 6 5 5 5 4 4 3 2 1 0 1
4 4 5 5 6 7 6 9 8 6 5 4 1 5 8 6 5 6 6 7 8 10 10 11 11 10 10 9 9 9 8 7 7 6 5 4 4 4 3 3 3 2 1 1
7 6 4 3 4 10 7 5 7 7 4 1 4 6 8 2 1 2 4 5 8 10 11 11 10 10 10 9 9 10 9 7 7 7 6 5 5 4 4 3 2 1 1 1
7 3 3 1 6 4 6 9 7 7 7 3 4 4 5 5 5 4 5 6 7 8 10 11 11 10 9 9 8 8 8 8 7 6 6 5 4 4 4 3 3 2 1 1
5 4 2 2 4 7 5 5 6 6 6 7 4 7 6 8 8 9 9 7 8 9 10 10 10 9 8 7 7 7 7 6 6 6 5 5 4 3 3 3 3 2 2 2
4 5 1 4 4 3 5 8 8 6 4 5 5 7 5 6 6 7 7 6 6 7 7 8 8 8 8 8 8 8 7 7 7 6 6 5 4 4 4 3 2 2 2 2
6 6 3 4 4 2 3 3 4 7 6 6 6 7 4 1 3 4 6 5 5 5 6 6 7 8 9 9 8 8 7 7 7 6 6 5 5 5 4 4 3 3 3 2
5 5 6 9 7 5 3 3 5 6 5 6 7 6 5 3 3 4 5 6 5 6 7 7 7 8 8 8 9 8 7 7 7 7 6 6 5 5 5 4 3 3 3 3
4 4 4 4 4 4 4 4 6 5 8 9 8 8 8 6 7 6 6 6 6 6 7 8 8 7 8 8 8 8 8 7 7 7 7 5 5 5 5 4 4 3 3 3
4 4 3 2 2 3 2 3 5 4 4 5 4 6 5 3 1 2 4 7 7 7 7 7 7 8 9 9 9 8 8 7 8 8 7 6 5 5 5 4 4 4 4 3
2 5 4 3 3 2 3 5 6 4 4 7 7 7 3 1 3 6 6 7 8 8 8 8 8 8 8 8 9 9 8 8 8 7 6 6 6 6 5 5 5 4 3 3
5 5 4 3 4 5 7 3 4 5 4 5 5 4 5 6 5 4 4 6 7 7 8 8 8 7 7 7 7 7 6 7 8 7 6 6 6 6 5 5 4 3 3 3
5 7 5 4 4 3 4 2 3 4 4 5 6 4 3 2 3 1 1 3 5 6 7 8 8 8 8 9 8 8 7 5 6 6 6 6 7 7 6 5 4 3 3 3
4 4 5 4 5 6 6 3 2 3 3 4 5 6 5 4 3 4 3 4 4 4 6 7 8 8 8 8 9 9 7 6 6 5 5 5 5 6 6 5 4 3 3 3
3 3 4 4 4 5 4 5 2 5 7 3 3 5 6 5 6 4 4 5 5 5 6 8 9 9 8 9 9 9 7 7 5 5 5 5 5 5 5 4 3 4 4 3
3 3 3 4 3 5 3 1 4 5 3 1 1 2 5 5 3 3 5 5 5 5 6 8 9 8 7 9 10 9 7 5 5 6 6 5 5 5 4 5 4 3 4 3
2 4 4 5 5 4 2 2 3 2 1 1 1 2 4 4 4 3 4 5 5 6 6 6 8 8 7 7 9 10 7 7 7 6 6 5 5 4 5 5 5 3 3 3
1 1 2 1 2 2 2 2 2 1 1 1 2 3 4 4 4 4 3 4 4 5 6 6 9 9 7 6 7 8 8 8 8 7 6 5 5 4 4 3 3 3 3 3
3 1 1 1 2 3 3 2 2 3 2 2 2 2 3 4 3 4 4 4 4 4 5 7 8 8 8 7 7 7 8 9 8 7 5 5 4 4 3 3 2 3 3 4
3 3 3 4 4 3 2 2 2 3 3 2 3 3 2 2 4 4 4 3 4 5 5 6 6 7 7 7 6 6 7 9 9 7 5 4 4 3 3 3 1 1 1 2
Wind_Direction
69 94 159 188 183 161 151 148 170 211 186 149 193 218 199 186 192 199 201 204 211 218 218 201 189 177 166 168 168 169 163 161 138 120 120 109 80 53 54 60 78 104 125 129
61 205 200 168 155 136 143 146 175 10 127 148 194 257 221 194 204 204 203 206 209 213 209 201 189 180 182 183 181 178 178 169 163 153 143 132 127 102 101 64 58 70 119 135
170 217 159 144 148 151 172 176 185 170 82 79 101 329 260 226 216 213 211 210 207 207 206 200 196 194 190 191 190 189 185 176 170 154 118 97 78 61 57 57 33 23 83 114
195 206 154 154 171 160 207 198 169 148 119 223 131 257 272 233 232 224 219 212 212 212 205 199 198 198 199 199 186 181 183 180 173 157 149 150 153 159 176 155 84 33 65 95
212 172 158 176 192 167 183 135 130 125 121 86 47 152 285 225 236 237 226 214 210 207 202 200 202 200 198 189 179 179 178 180 174 166 168 160 165 170 151 120 84 42 41 58
211 198 180 187 160 144 125 85 66 53 75 93 221 169 274 228 221 231 224 214 206 202 199 199 198 190 190 184 179 175 173 182 173 170 171 171 174 170 154 158 157 74 40 35
333 280 217 146 113 99 112 106 61 16 13 249 226 192 250 246 224 217 214 211 202 193 191 192 190 192 192 188 184 178 175 184 178 173 177 181 184 178 181 190 185 173 108 31
171 251 220 180 165 166 169 146 159 182 206 263 242 227 256 265 249 225 209 197 188 187 190 195 194 194 194 191 186 181 182 187 179 176 182 181 181 182 190 187 174 171 185 220
172 234 278 208 163 140 144 173 156 131 134 129 273 280 300 287 256 192 185 178 187 190 191 194 191 191 191 188 189 185 182 183 179 177 175 180 181 175 181 180 168 176 198 183
149 202 281 269 90 48 140 141 109 126 145 201 277 266 246 247 235 215 198 196 200 192 191 192 190 190 188 187 187 178 178 181 177 172 178 182 175 174 175 163 162 160 157 132
127 148 312 59 162 171 115 105 109 117 146 155 212 263 228 220 218 209 211 204 199 197 192 190 189 185 178 172 168 169 172 169 164 167 167 162 167 166 159 157 159 154 137 134
134 122 197 265 276 198 146 155 147 151 183 165 170 258 266 222 216 205 207 202 195 189 186 181 179 172 167 167 169 171 170 170 172 166 161 164 164 152 151 148 144 142 137 130
136 120 101 348 340 26 102 135 142 126 121 149 169 252 310 239 189 201 199 197 185 167 163 163 165 167 170 170 169 170 169 170 165 158 157 156 155 153 154 151 146 138 129 118
123 120 164 190 207 187 166 165 153 130 149 183 209 236 285 266 215 210 200 190 179 166 159 160 163 167 167 166 165 165 167 166 161 157 155 158 162 158 154 148 138 130 130 122
112 147 173 208 216 176 181 183 173 175 180 180 215 219 244 238 215 205 193 179 170 167 163 166 167 164 159 158 160 160 161 158 154 150 151 157 151 142 137 134 131 121 114 114
78 140 150 221 233 186 183 197 180 189 183 198 207 240 247 253 181 159 176 177 178 180 175 166 159 158 159 159 159 157 157 155 148 148 153 150 143 140 139 137 130 119 113 106
87 124 132 212 237 129 224 218 194 195 198 179 204 228 207 182 198 198 189 183 184 182 176 168 165 165 159 158 158 160 160 149 145 147 149 152 149 147 147 143 132 128 127 114
143 118 128 142 123 193 234 226 187 191 218 206 209 211 193 197 211 203 181 179 183 177 172 170 162 153 145 140 136 133 133 143 144 146 149 151 151 150 144 136 136 132 130 130
159 140 124 129 158 243 282 206 183 184 237 210 197 205 191 149 90 6 211 170 180 176 171 166 159 149 142 142 143 134 130 136 147 156 160 162 158 152 147 147 150 145 137 129
73 106 120 130 149 209 235 263 249 131 247 233 196 197 182 137 153 238 209 156 157 149 151 148 141 134 141 145 139 136 141 150 170 175 166 158 156 153 153 157 153 145 139 139
56 62 124 153 180 241 268 288 116 167 231 248 201 196 184 183 204 208 161 154 152 145 143 142 141 145 152 145 140 143 152 171 173 161 151 145 147 152 153 147 140 138 135 129
159 141 162 145 166 239 308 32 165 219 270 253 194 179 169 171 161 144 146 149 140 133 134 142 144 144 144 144 144 147 158 164 146 145 146 147 147 152 149 140 138 135 139 141
179 188 183 184 203 242 266 235 266 220 184 291 163 157 154 154 160 157 152 150 145 140 139 141 142 140 143 151 152 152 158 148 145 142 145 148 145 145 150 152 152 150 154 165
279 144 145 204 272 276 297 306 344 39 152 215 157 142 137 152 157 148 141 143 143 140 144 140 140 145 154 160 158 156 152 148 145 146 147 145 147 147 146 150 158 167 182 190
251 175 126 240 270 343 344 347 359 14 42 59 66 100 135 144 146 149 147 152 158 153 149 150 152 156 159 159 155 150 149 145 144 146 147 144 141 146 150 149 169 184 198 200
233 196 182 222 225 187 261 319 15 36 21 32 63 49 61 125 150 146 151 152 152 158 152 148 150 151 153 152 150 151 153 149 147 149 155 157 156 157 162 158 132 85 166 170
Height
1484 1492 1500 1499 1497 1499 1505 1512 1517 1514 1509 1513 1517 1517 1516 1516 1518 1519 1520 1522 1523 1524 1526 1528 1529 1531 1532 1533 1534 1535 1536 1537 1538 1539 1540 1540 1541 1542 1542 1543 1543 1543 1544 1544
1491 1496 1491 1491 1495 1498 1504 1512 1515 1513 1509 1513 1518 1518 1514 1514 1514 1515 1517 1519 1521 1523 1525 1527 1528 1530 1531 1532 1533 1535 1537 1538 1539 1540 1541 1541 1542 1542 1543 1543 1544 1544 1544 1545
1491 1490 1487 1491 1496 1502 1506 1510 1512 1514 1512 1513 1518 1523 1517 1513 1514 1515 1516 1517 1519 1521 1522 1524 1526 1528 1530 1531 1533 1535 1536 1538 1539 1540 1541 1542 1542 1543 1544 1544 1544 1545 1545 1545
1488 1486 1487 1492 1496 1499 1508 1501 1504 1509 1519 1528 1523 1537 1521 1515 1514 1512 1513 1514 1516 1518 1520 1522 1524 1526 1528 1530 1532 1534 1536 1538 1539 1540 1541 1542 1542 1543 1544 1544 1545 1545 1545 1545
1488 1485 1487 1492 1492 1493 1499 1497 1503 1510 1519 1529 1527 1535 1527 1516 1515 1510 1508 1509 1512 1514 1517 1520 1522 1524 1526 1529 1531 1533 1535 1537 1538 1540 1541 1541 1542 1543 1544 1544 1545 1545 1545 1545
1483 1482 1483 1485 1486 1489 1494 1502 1511 1519 1527 1539 1531 1536 1530 1518 1508 1504 1502 1505 1507 1511 1514 1517 1520 1523 1525 1527 1529 1531 1533 1535 1537 1539 1540 1541 1542 1543 1543 1544 1544 1545 1545 1545
1487 1483 1481 1482 1489 1492 1496 1514 1535 1539 1547 1543 1529 1531 1524 1503 1498 1497 1497 1500 1503 1507 1510 1514 1517 1520 1522 1524 1527 1529 1531 1533 1535 1537 1539 1540 1541 1542 1543 1543 1544 1544 1544 1544
1497 1498 1483 1480 1485 1494 1498 1507 1531 1544 1547 1541 1530 1530 1511 1495 1493 1493 1495 1497 1501 1504 1507 1510 1513 1517 1519 1522 1524 1527 1529 1532 1534 1536 1538 1539 1540 1541 1542 1543 1543 1543 1543 1543
1497 1496 1479 1477 1478 1485 1499 1505 1506 1526 1534 1539 1533 1521 1504 1493 1492 1493 1494 1496 1498 1501 1504 1507 1510 1514 1516 1519 1522 1525 1527 1530 1532 1535 1537 1538 1539 1540 1541 1542 1542 1542 1542 1542
1484 1493 1482 1478 1479 1484 1488 1498 1514 1527 1541 1543 1531 1523 1515 1499 1495 1493 1493 1494 1496 1498 1501 1504 1507 1511 1514 1518 1521 1524 1526 1528 1531 1534 1535 1537 1538 1539 1540 1540 1540 1541 1541 1541
1479 1491 1488 1483 1485 1490 1494 1501 1511 1522 1524 1538 1540 1526 1496 1493 1490 1490 1490 1491 1493 1496 1499 1502 1505 1509 1513 1516 1520 1522 1525 1527 1530 1532 1534 1535 1536 1537 1538 1539 1539 1540 1540 1540
1479 1491 1498 1489 1481 1479 1483 1493 1504 1515 1525 1528 1531 1520 1486 1486 1486 1487 1488 1489 1491 1494 1497 1501 1504 1508 1511 1514 1518 1521 1523 1526 1528 1531 1533 1534 1535 1536 1537 1537 1538 1538 1539 1539
1477 1491 1504 1501 1495 1487 1487 1491 1495 1504 1519 1528 1528 1513 1485 1484 1485 1486 1487 1489 1490 1492 1496 1500 1503 1506 1509 1512 1516 1519 1522 1525 1527 1529 1531 1532 1534 1535 1536 1536 1536 1537 1537 1537
1471 1487 1496 1503 1499 1490 1489 1490 1494 1500 1514 1520 1514 1502 1489 1486 1485 1485 1486 1487 1490 1492 1494 1497 1500 1504 1507 1511 1514 1517 1520 1523 1526 1528 1529 1531 1532 1533 1534 1535 1536 1536 1536 1536
1472 1486 1486 1485 1482 1483 1484 1486 1490 1493 1497 1504 1500 1497 1488 1484 1483 1483 1484 1486 1489 1490 1493 1495 1498 1502 1505 1509 1512 1515 1518 1521 1524 1526 1527 1529 1531 1532 1533 1534 1534 1535 1535 1535
1475 1484 1485 1486 1482 1482 1484 1483 1485 1487 1490 1491 1491 1490 1481 1480 1481 1482 1483 1485 1487 1489 1491 1494 1497 1500 1503 1506 1510 1513 1516 1519 1522 1524 1525 1527 1529 1531 1532 1532 1533 1533 1534 1534
1480 1484 1492 1495 1485 1483 1492 1484 1484 1485 1483 1485 1489 1484 1479 1481 1480 1481 1482 1483 1484 1487 1490 1492 1495 1498 1501 1505 1508 1511 1514 1517 1519 1522 1524 1525 1527 1529 1530 1531 1531 1532 1532 1533
1480 1486 1495 1497 1491 1500 1488 1476 1476 1479 1479 1479 1478 1478 1477 1477 1477 1479 1480 1481 1483 1485 1488 1491 1494 1497 1501 1504 1508 1511 1514 1516 1517 1520 1522 1524 1525 1527 1528 1529 1530 1530 1531 1532
1474 1482 1494 1500 1499 1493 1481 1475 1476 1478 1479 1475 1476 1476 1477 1477 1478 1480 1480 1481 1482 1484 1486 1490 1493 1496 1500 1503 1507 1509 1511 1514 1516 1518 1520 1522 1523 1525 1526 1527 1528 1529 1530 1530
1475 1478 1490 1497 1497 1498 1482 1471 1470 1475 1481 1473 1473 1474 1475 1477 1482 1480 1478 1480 1482 1484 1486 1489 1492 1495 1499 1501 1505 1508 1510 1513 1515 1517 1519 1520 1521 1522 1524 1526 1527 1528 1528 1529
1482 1486 1490 1494 1493 1487 1475 1470 1470 1484 1480 1471 1471 1472 1473 1474 1475 1476 1477 1479 1481 1483 1486 1489 1491 1494 1497 1500 1503 1506 1509 1511 1514 1516 1518 1519 1520 1521 1523 1524 1526 1526 1527 1528
1484 1487 1490 1492 1493 1489 1472 1470 1474 1474 1469 1469 1469 1470 1471 1471 1473 1475 1476 1478 1480 1482 1485 1487 1490 1493 1496 1498 1501 1503 1506 1509 1512 1514 1516 1517 1518 1520 1522 1523 1524 1525 1526 1526
1481 1482 1483 1484 1483 1475 1471 1471 1470 1469 1468 1468 1468 1469 1470 1471 1472 1474 1476 1478 1480 1482 1484 1486 1489 1492 1495 1497 1500 1502 1504 1507 1509 1511 1513 1515 1517 1518 1519 1521 1522 1523 1524 1525
1478 1477 1478 1478 1474 1472 1471 1470 1469 1468 1468 1468 1469 1469 1470 1471 1472 1473 1475 1477 1479 1481 1483 1485 1488 1490 1493 1495 1498 1501 1503 1505 1508 1510 1512 1513 1515 1516 1517 1519 1520 1521 1522 1522
1477 1476 1477 1476 1473 1471 1470 1470 1469 1469 1468 1468 1468 1468 1469 1470 1471 1473 1474 1476 1478 1480 1482 1484 1486 1489 1492 1495 1497 1499 1501 1503 1505 1508 1509 1511 1512 1514 1515 1516 1517 1518 1519 1520
1475 1475 1476 1475 1471 1472 1471 1470 1469 1468 1468 1468 1468 1468 1469 1470 1471 1472 1474 1476 1478 1480 1482 1484 1486 1488 1491 1493 1495 1498 1500 1501 1504 1505 1507 1509 1510 1512 1513 1514 1515 1516 1517 1517